1504252801.06,26133,23.56,74274.8,21.39,-14.33,-15.21,0,*43
1504252802.36,26134,23.56,74274.5,21.39,-14.83,-15.81,0,*45
1504252803.64,26135,23.56,74274.0,21.39,-15.39,-16.27,0,*4B
1504252804.93,26136,23.56,74270.8,21.39,-14.97,-15.81,0,*42
1504252806.15,26137,23.56,74274.5,21.41,-14.19,-15.15,0,*47
1504252807.44,26138,23.56,74272.0,21.39,-14.05,-14.83,0,*44
1504252808.68,26139,23.56,74274.8,21.41,-13.73,-14.47,0,*44
1504252809.92,26140,23.56,74270.8,21.41,-14.19,-15.01,0,*42
1504252811.16,26141,23.56,74272.5,21.41,-14.33,-15.21,0,*49
1504252812.42,26142,23.56,74274.0,21.43,-14.19,-15.01,0,*42
1504252813.68,26143,23.56,74270.8,21.43,-14.61,-15.43,0,*4A
1504252814.92,26144,23.56,74274.3,21.43,-15.07,-15.95,0,*47
1504252816.15,26145,23.56,74274.8,21.45,-15.11,-15.89,0,*4A
1504252817.39,26146,23.56,74278.3,21.43,-15.75,-16.59,0,*43
1504252818.66,26147,23.56,74272.0,21.43,-14.79,-15.49,0,*4D
1504252819.93,26148,23.56,74274.5,21.43,-14.15,-14.79,0,*4A
1504252821.19,26149,23.56,74272.0,21.45,-13.83,-14.55,0,*4B
1504252822.49,26150,23.56,74272.5,21.47,-13.97,-14.83,0,*4F
1504252823.73,26151,23.56,74272.5,21.45,-14.75,-15.71,0,*4B
1504252824.97,26152,23.56,74272.5,21.45,-15.29,-16.17,0,*43
1504252826.25,26153,23.56,74268.8,21.43,-15.43,-16.23,0,*4F
1504252827.5,26154,23.56,74272.8,21.49,-13.97,-14.65,0,*4D
1504252828.74,26155,23.56,74272.5,21.45,-14.15,-15.01,0,*4E
1504252830.0,26156,23.56,74270.0,21.45,-15.39,-16.27,0,*45
1504252831.26,26157,23.56,74272.3,21.45,-14.75,-15.57,0,*49
1504252832.47,26158,23.56,74272.3,21.45,-15.53,-16.41,0,*47
1504252833.71,26159,23.56,74270.3,21.45,-15.43,-16.41,0,*47
1504252834.96,26160,23.56,74270.3,21.43,-14.79,-15.67,0,*44
1504252836.22,26161,23.56,74272.0,21.43,-14.01,-14.69,0,*45
1504252837.49,26162,23.56,74272.5,21.45,-13.83,-14.55,0,*42
1504252838.76,26163,23.56,74272.8,21.47,-14.33,-15.21,0,*4F
1504252839.97,26164,23.56,74272.8,21.49,-13.51,-14.23,0,*46
1504252841.24,26165,23.56,74274.0,21.47,-15.07,-15.85,0,*41
1504252842.5,26166,23.56,74274.0,21.47,-15.71,-16.69,0,*42
1504252843.75,26167,23.56,74272.5,21.47,-14.37,-15.25,0,*4B
1504252845.02,26168,23.56,74274.3,21.49,-14.51,-15.39,0,*47
1504252846.32,26169,23.56,74272.5,21.47,-14.47,-15.21,0,*46
1504252847.58,26170,23.56,74270.3,21.47,-14.79,-15.67,0,*41
1504252848.79,26171,23.56,74274.8,21.49,-14.23,-15.07,0,*47
1504252850.06,26172,23.56,74272.5,21.47,-14.33,-15.21,0,*4F
1504252851.35,26173,23.56,74272.0,21.47,-15.21,-16.09,0,*45
1504252852.61,26174,23.56,74272.0,21.47,-14.79,-15.67,0,*45
1504252853.81,26175,23.56,74272.0,21.49,-14.65,-15.53,0,*40
1504252855.03,26176,23.56,74270.3,21.49,-14.23,-15.11,0,*47
1504252856.29,26177,23.56,74270.8,21.47,-15.49,-16.51,0,*42
1504252857.55,26178,23.56,74270.8,21.47,-15.57,-16.41,0,*43
1504252858.84,26179,23.56,74274.3,21.47,-15.21,-16.13,0,*44
1504252860.07,26180,23.56,74272.5,21.47,-14.65,-15.67,0,*43
1504252861.31,26181,23.56,74270.8,21.47,-14.11,-15.07,0,*47
1504252862.58,26182,23.56,74272.5,21.47,-13.93,-14.83,0,*44
1504252863.86,26183,23.56,74274.5,21.47,-14.51,-15.49,0,*4B
1504252865.11,26184,23.63,74274.3,21.47,-14.37,-15.25,0,*46
1504252866.34,26185,23.56,74270.3,21.49,-15.49,-16.51,0,*41
1504252867.61,26186,23.56,74274.3,21.47,-14.83,-15.71,0,*4A
1504252868.88,26187,23.56,74272.8,21.47,-14.37,-15.39,0,*48
1504252870.09,26188,23.56,74274.3,21.49,-15.67,-16.55,0,*44
1504252871.38,26189,23.56,74272.5,21.47,-15.39,-16.27,0,*45
1504252872.64,26190,23.56,74272.3,21.47,-15.11,-16.09,0,*4B
1504252873.88,26191,23.63,74274.5,21.47,-15.07,-15.95,0,*4B
1504252875.15,26192,23.56,74272.0,21.47,-15.81,-16.59,0,*45
1504252876.45,26193,23.56,74274.8,21.47,-14.83,-15.81,0,*41
1504252877.72,26194,23.56,74272.3,21.47,-14.37,-15.35,0,*46
1504252878.95,26195,23.56,74272.0,21.45,-15.57,-16.55,0,*47
1504252880.18,26196,23.56,74272.0,21.45,-15.01,-16.03,0,*44
1504252881.45,26197,23.56,74272.0,21.45,-14.51,-15.39,0,*4B
1504252882.68,26198,23.56,74270.5,21.45,-14.97,-15.75,0,*46
1504252883.9,26199,23.56,74272.0,21.45,-15.25,-16.03,0,*4D
1504252885.12,26200,23.56,74272.3,21.45,-15.57,-16.45,0,*49
1504252886.32,26201,23.56,74272.3,21.45,-15.99,-16.93,0,*41
1504252887.56,26202,23.56,74274.5,21.45,-15.89,-16.79,0,*47
1504252888.84,26203,23.56,74272.5,21.43,-15.01,-15.89,0,*4C
1504252890.12,26204,23.56,74272.3,21.43,-14.93,-15.81,0,*49
1504252891.37,26205,23.56,74274.3,21.45,-14.55,-15.29,0,*46
1504252892.62,26206,23.56,74272.0,21.43,-14.69,-15.43,0,*40
1504252893.87,26207,23.56,74270.8,21.45,-14.11,-14.97,0,*40
1504252895.08,26208,23.56,74272.0,21.45,-14.23,-15.11,0,*41
1504252896.34,26209,23.56,74272.0,21.45,-14.97,-15.89,0,*4E
1504252897.61,26210,23.56,74272.0,21.45,-14.55,-15.39,0,*43
1504252898.88,26211,23.56,74274.8,21.45,-14.51,-15.39,0,*46
1504252900.14,26212,23.56,74272.8,21.49,-14.05,-14.93,0,*49
1504252901.44,26213,23.56,74274.5,21.47,-13.97,-14.93,0,*4A
1504252902.68,26214,23.56,74268.3,21.49,-14.05,-15.07,0,*43
1504252903.97,26215,23.56,74272.8,21.47,-14.93,-15.85,0,*49
1504252905.18,26216,23.56,74270.8,21.49,-14.65,-15.49,0,*4D
1504252906.42,26217,23.56,74270.8,21.49,-14.19,-15.21,0,*49
1504252907.66,26218,23.56,74270.0,21.47,-15.95,-16.97,0,*43
1504252908.92,26219,23.56,74274.3,21.47,-15.07,-16.13,0,*45
1504252910.17,26220,23.63,74272.5,21.47,-14.61,-15.49,0,*42
1504252911.46,26221,23.56,74272.3,21.47,-14.79,-15.81,0,*4E
1504252912.69,26222,23.56,74270.0,21.49,-14.37,-15.35,0,*46
1504252913.95,26223,23.56,74274.8,21.51,-14.79,-15.75,0,*40
1504252915.18,26224,23.56,74270.3,21.49,-15.57,-16.41,0,*47
1504252916.42,26225,23.56,74272.5,21.47,-15.11,-15.99,0,*4C
1504252917.62,26226,23.56,74272.0,21.49,-15.99,-16.97,0,*4C
1504252918.88,26227,23.56,74274.3,21.47,-15.53,-16.51,0,*4F
1504252920.08,26228,23.56,74274.3,21.49,-15.49,-16.37,0,*45
1504252921.38,26229,23.56,74274.0,21.43,-16.13,-17.07,0,*40
1504252922.66,26230,23.56,74274.5,21.43,-15.89,-16.69,0,*41
1504252923.94,26231,23.56,74272.5,21.43,-15.21,-16.17,0,*4B
1504252925.18,26232,23.56,74272.0,21.45,-15.29,-16.13,0,*42
1504252926.45,26233,23.56,74270.3,21.47,-14.37,-15.35,0,*48
1504252927.71,26234,23.63,74272.5,21.47,-14.33,-15.21,0,*4E
1504252928.98,26235,23.56,74272.0,21.45,-15.39,-16.27,0,*43
1504252930.22,26236,23.56,74274.5,21.43,-14.15,-15.07,0,*48
1504252931.47,26237,23.63,74276.3,21.45,-14.97,-15.89,0,*43
1504252932.74,26238,23.63,74272.3,21.45,-14.55,-15.57,0,*41
1504252934.0,26239,23.56,74274.5,21.47,-14.97,-15.95,0,*42
1504252935.23,26240,23.56,74272.5,21.47,-15.99,-16.83,0,*47
1504252936.48,26241,23.56,74272.5,21.47,-15.67,-16.59,0,*40
1504252937.73,26242,23.56,74268.8,21.45,-14.97,-15.85,0,*4D
1504252939.02,26243,23.56,74274.5,21.43,-14.55,-15.43,0,*4E
1504252940.26,26244,23.56,74272.8,21.47,-15.11,-15.99,0,*4B
1504252941.47,26245,23.63,74274.8,21.45,-14.23,-15.11,0,*48
1504252942.74,26246,23.56,74274.0,21.45,-14.43,-15.39,0,*47
1504252944.0,26247,23.56,74274.0,21.47,-15.11,-16.13,0,*49
1504252945.27,26248,23.63,74272.8,21.47,-15.25,-16.23,0,*42
1504252946.55,26249,23.63,74272.3,21.43,-15.89,-16.69,0,*4F
1504252947.77,26250,23.56,74272.8,21.45,-15.25,-16.03,0,*4B
1504252949.0,26251,23.56,74268.5,21.45,-15.29,-16.13,0,*47
1504252950.26,26252,23.56,74272.5,21.45,-15.39,-16.31,0,*45
1504252951.52,26253,23.56,74272.8,21.45,-15.43,-16.31,0,*49
1504252952.8,26254,23.56,74274.8,21.43,-15.01,-15.89,0,*4E
1504252954.02,26255,23.56,74274.8,21.45,-14.15,-15.15,0,*48
1504252955.25,26256,23.56,74270.3,21.45,-15.43,-16.45,0,*4F
1504252956.51,26257,23.63,74272.3,21.43,-15.89,-16.79,0,*41
1504252957.74,26258,23.56,74270.3,21.45,-15.11,-15.89,0,*45
1504252959.03,26259,23.63,74274.3,21.43,-14.43,-15.43,0,*42
1504252960.31,26260,23.63,74276.0,21.43,-15.43,-16.51,0,*49
1504252961.58,26261,23.63,74272.8,21.43,-15.15,-16.17,0,*49
1504252962.81,26262,23.56,74270.8,21.45,-15.15,-16.23,0,*4B
1504252964.02,26263,23.56,74268.3,21.45,-15.25,-16.03,0,*4B
1504252965.25,26264,23.63,74274.3,21.43,-15.95,-16.93,0,*48
1504252966.53,26265,23.56,74272.0,21.43,-15.01,-15.89,0,*4C
1504252967.76,26266,23.63,74274.8,21.43,-16.03,-16.93,0,*46
1504252969.04,26267,23.63,74272.3,21.43,-15.57,-16.23,0,*4E
1504252970.29,26268,23.56,74268.5,21.43,-14.79,-15.67,0,*4F
1504252971.54,26269,23.56,74270.5,21.43,-14.15,-15.07,0,*42
1504252972.79,26270,23.63,74274.8,21.45,-15.21,-16.31,0,*4C
1504252974.05,26271,23.56,74274.0,21.43,-15.75,-16.69,0,*47
1504252975.3,26272,23.63,74274.3,21.43,-15.89,-16.93,0,*42
1504252976.52,26273,23.63,74272.5,21.41,-15.49,-16.59,0,*4B
1504252977.81,26274,23.63,74272.3,21.43,-14.47,-15.35,0,*48
1504252979.06,26275,23.56,74270.8,21.43,-15.01,-15.95,0,*40
1504252980.31,26276,23.63,74272.0,21.43,-15.01,-16.03,0,*4F
1504252981.54,26277,23.63,74270.8,21.41,-14.75,-15.67,0,*4F
1504252982.77,26278,23.63,74272.8,21.43,-15.07,-16.03,0,*47
1504252984.03,26279,23.56,74272.0,21.43,-15.43,-16.37,0,*41
1504252985.29,26280,23.56,74270.8,21.43,-15.29,-16.23,0,*4E
1504252986.54,26281,23.63,74270.3,21.41,-14.93,-15.89,0,*4E
1504252987.81,26282,23.63,74272.0,21.41,-14.93,-15.81,0,*45
1504252989.03,26283,23.63,74272.8,21.41,-14.79,-15.67,0,*48
1504252990.3,26284,23.63,74276.0,21.41,-14.05,-15.01,0,*44
1504252991.54,26285,23.63,74272.3,21.43,-14.33,-15.29,0,*48
1504252992.8,26286,23.56,74268.0,21.43,-14.75,-15.63,0,*47
1504252994.06,26287,23.56,74272.0,21.43,-14.29,-15.21,0,*49
1504252995.28,26288,23.63,74272.0,21.45,-14.15,-15.15,0,*48
1504252996.5,26289,23.63,74272.0,21.45,-14.37,-15.29,0,*46
1504252997.74,26290,23.63,74272.0,21.45,-13.87,-14.65,0,*4B
1504252998.99,26291,23.63,74272.0,21.47,-13.51,-14.37,0,*44
1504253000.22,26292,23.63,74274.3,21.49,-13.73,-14.51,0,*49
1504253001.46,26293,23.56,74268.8,21.49,-14.11,-14.97,0,*41
1504253002.7,26294,23.63,74274.5,21.49,-14.19,-14.97,0,*4E
1504253004.0,26295,23.63,74274.5,21.51,-14.01,-14.79,0,*4F
1504253005.23,26296,23.63,74274.5,21.51,-13.93,-14.65,0,*4D
1504253006.49,26297,23.63,74272.3,21.53,-13.97,-14.75,0,*4B
1504253007.74,26298,23.56,74268.5,21.51,-14.15,-15.15,0,*4C
1504253009.03,26299,23.63,74272.0,21.51,-14.47,-15.43,0,*49
1504253010.3,26300,23.63,74272.8,21.53,-13.97,-14.83,0,*4D
1504253011.52,26301,23.56,74270.3,21.53,-14.11,-14.89,0,*4F
1504253012.72,26302,23.63,74274.5,21.53,-13.43,-14.23,0,*4C
1504253013.97,26303,23.63,74274.8,21.57,-13.51,-14.23,0,*4A
1504253015.2,26304,23.63,74274.8,21.57,-13.47,-14.19,0,*43
1504253016.43,26305,23.63,74274.3,21.59,-13.37,-14.23,0,*42
1504253017.69,26306,23.63,74274.5,21.61,-13.93,-14.75,0,*47
1504253018.97,26307,23.63,74274.5,21.61,-13.87,-14.75,0,*43
1504253020.21,26308,23.63,74274.0,21.63,-14.11,-15.01,0,*44
1504253021.5,26309,23.63,74274.3,21.61,-14.05,-14.93,0,*48
1504253022.71,26310,23.63,74274.0,21.63,-13.73,-14.61,0,*49
1504253023.95,26311,23.63,74272.3,21.63,-13.29,-14.15,0,*44
1504253025.16,26312,23.63,74278.0,21.63,-13.55,-14.37,0,*4C
1504253026.39,26313,23.63,74272.8,21.67,-13.69,-14.43,0,*45
1504253027.6,26314,23.63,74272.8,21.67,-13.51,-14.33,0,*4E
1504253028.83,26315,23.63,74272.8,21.67,-13.79,-14.65,0,*46
1504253030.09,26316,23.63,74272.0,21.69,-13.73,-14.51,0,*46
1504253031.33,26317,23.63,74272.8,21.71,-14.23,-15.01,0,*48
1504253032.6,26318,23.63,74272.0,21.69,-14.05,-14.89,0,*4B
1504253033.83,26319,23.63,74272.3,21.69,-14.33,-15.15,0,*4B
1504253035.12,26320,23.63,74276.0,21.69,-14.47,-15.35,0,*40
1504253036.39,26321,23.63,74272.0,21.69,-14.15,-15.01,0,*41
1504253037.67,26322,23.63,74272.8,21.69,-13.79,-14.55,0,*4F
1504253038.96,26323,23.63,74272.3,21.69,-14.01,-14.83,0,*4D
1504253040.2,26324,23.63,74274.0,21.69,-14.19,-15.07,0,*4E
1504253041.45,26325,23.63,74272.5,21.69,-15.01,-15.95,0,*4C
1504253042.69,26326,23.63,74272.3,21.71,-15.15,-16.09,0,*45
1504253043.96,26327,23.63,74270.8,21.69,-14.47,-15.25,0,*46
1504253045.23,26328,23.63,74276.5,21.69,-15.01,-15.89,0,*4C
1504253046.49,26329,23.63,74272.8,21.69,-15.67,-16.69,0,*40
1504253047.75,26330,23.63,74274.5,21.69,-14.93,-15.75,0,*4C
1504253048.99,26331,23.63,74274.3,21.69,-15.01,-16.03,0,*45
1504253050.23,26332,23.63,74274.3,21.67,-15.43,-16.55,0,*4D
1504253051.46,26333,23.63,74272.8,21.67,-15.25,-16.31,0,*4E
1504253052.66,26334,23.63,74274.3,21.67,-14.65,-15.53,0,*4B
1504253053.88,26335,23.63,74274.5,21.67,-14.23,-15.11,0,*4E
1504253055.14,26336,23.63,74274.5,21.67,-13.83,-14.83,0,*4A
1504253056.4,26337,23.63,74272.8,21.67,-14.83,-15.81,0,*4F
1504253057.66,26338,23.63,74274.3,21.67,-14.97,-16.09,0,*46
1504253058.91,26339,23.63,74272.0,21.67,-15.39,-16.31,0,*49
1504253060.17,26340,23.63,74270.3,21.65,-14.89,-15.85,0,*43
1504253061.42,26341,23.63,74272.5,21.65,-14.89,-15.85,0,*42
1504253062.62,26342,23.63,74272.0,21.67,-14.65,-15.67,0,*4D
1504253063.88,26343,23.63,74274.0,21.67,-14.43,-15.39,0,*43
1504253065.11,26344,23.63,74276.3,21.65,-14.29,-15.15,0,*44
1504253066.39,26345,23.63,74272.3,21.65,-15.01,-15.85,0,*47
1504253067.62,26346,23.63,74272.3,21.65,-15.63,-16.59,0,*42
1504253068.86,26347,23.63,74274.5,21.65,-15.57,-16.45,0,*49
1504253070.09,26348,23.63,74272.5,21.65,-14.89,-15.75,0,*44
1504253071.35,26349,23.63,74274.3,21.65,-15.29,-16.27,0,*4A
1504253072.63,26350,23.63,74272.0,21.65,-15.43,-16.31,0,*49
1504253073.86,26351,23.63,74274.5,21.63,-14.75,-15.63,0,*4E
1504253075.07,26352,23.63,74270.8,21.63,-14.69,-15.49,0,*48
1504253076.29,26353,23.63,74274.3,21.63,-14.23,-15.15,0,*4E
1504253077.54,26354,23.63,74274.8,21.63,-14.55,-15.49,0,*41
1504253078.81,26355,23.63,74272.8,21.63,-14.83,-15.85,0,*4B
1504253080.0,26356,23.63,74272.8,21.67,-14.69,-15.67,0,*44
1504253081.25,26357,23.63,74268.3,21.65,-14.75,-15.63,0,*4E
1504253082.53,26358,23.63,74270.8,21.65,-13.87,-14.75,0,*4D
1504253083.76,26359,23.63,74272.0,21.67,-13.23,-14.05,0,*47
1504253084.98,26360,23.63,74274.5,21.67,-14.11,-15.07,0,*48
1504253086.18,26361,23.63,74274.5,21.67,-13.69,-14.65,0,*44
1504253087.42,26362,23.63,74270.0,21.69,-13.73,-14.61,0,*46
1504253088.71,26363,23.63,74272.3,21.69,-14.05,-15.01,0,*46
1504253089.95,26364,23.63,74268.8,21.71,-13.97,-14.89,0,*45
1504253091.16,26365,23.63,74272.8,21.71,-13.73,-14.69,0,*40
1504253092.41,26366,23.63,74272.0,21.69,-13.73,-14.75,0,*47
1504253093.66,26367,23.63,74274.0,21.71,-14.55,-15.49,0,*42
1504253094.92,26368,23.63,74272.0,21.71,-14.47,-15.35,0,*45
1504253096.18,26369,23.63,74268.8,21.71,-15.35,-16.31,0,*47
1504253097.43,26370,23.63,74272.3,21.71,-14.97,-15.89,0,*46
1504253098.67,26371,23.63,74272.3,21.71,-14.11,-15.01,0,*49
1504253099.91,26372,23.63,74270.3,21.71,-14.75,-15.75,0,*4B
1504253101.16,26373,23.63,74272.5,21.71,-15.21,-16.13,0,*49
1504253102.39,26374,23.63,74274.5,21.71,-15.29,-16.31,0,*46
1504253103.65,26375,23.63,74270.8,21.69,-14.89,-15.81,0,*4D
1504253104.91,26376,23.63,74270.0,21.69,-15.75,-16.69,0,*49
1504253106.12,26377,23.63,74270.5,21.67,-16.41,-17.31,0,*4E
1504253107.37,26378,23.63,74270.5,21.65,-14.75,-15.71,0,*40
1504253108.59,26379,23.63,74274.8,21.65,-15.49,-16.45,0,*4B
1504253109.84,26380,23.63,74270.5,21.65,-15.85,-16.93,0,*46
1504253111.1,26381,23.63,74266.5,21.65,-15.29,-16.27,0,*4E
1504253112.37,26382,23.63,74274.8,21.65,-14.97,-15.85,0,*42
1504253113.63,26383,23.63,74272.8,21.65,-14.83,-15.75,0,*49
1504253114.91,26384,23.63,74272.8,21.65,-14.55,-15.35,0,*41
1504253116.2,26385,23.63,74270.3,21.65,-14.55,-15.43,0,*41
1504253117.46,26386,23.63,74274.0,21.67,-13.97,-14.83,0,*44
1504253118.71,26387,23.63,74270.5,21.67,-14.97,-16.09,0,*42
1504253119.94,26388,23.63,74272.3,21.65,-15.29,-16.37,0,*46
1504253121.2,26389,23.63,74270.5,21.65,-14.89,-15.85,0,*46
1504253122.45,26390,23.63,74270.3,21.65,-14.37,-15.35,0,*40
1504253123.69,26391,23.63,74270.3,21.67,-14.11,-14.93,0,*4A
1504253124.97,26392,23.63,74272.3,21.65,-14.55,-15.43,0,*47
1504253126.19,26393,23.63,74272.8,21.67,-14.33,-15.25,0,*44
1504253127.43,26394,23.63,74272.8,21.67,-15.21,-16.23,0,*44
1504253128.64,26395,23.63,74272.0,21.67,-15.67,-16.59,0,*4A
1504253129.85,26396,23.63,74274.5,21.67,-14.65,-15.53,0,*43
1504253131.08,26397,23.63,74270.8,21.67,-14.93,-15.99,0,*4D
1504253132.33,26398,23.63,74274.5,21.65,-15.15,-16.13,0,*4E
1504253133.55,26399,23.63,74274.5,21.65,-15.49,-16.37,0,*40
1504253134.83,26400,23.63,74272.3,21.65,-14.97,-15.89,0,*43
1504253136.08,26401,23.63,74270.8,21.67,-14.97,-15.85,0,*4C
1504253137.34,26402,23.63,74270.8,21.65,-15.29,-16.17,0,*41
1504253138.57,26403,23.63,74270.5,21.67,-15.29,-16.27,0,*41
1504253139.81,26404,23.63,74266.5,21.65,-15.01,-15.99,0,*48
1504253141.07,26405,23.63,74272.5,21.65,-15.29,-16.27,0,*45
1504253142.34,26406,23.63,74272.3,21.65,-15.43,-16.31,0,*4D
1504253143.57,26407,23.63,74268.0,21.65,-15.63,-16.59,0,*40
1504253144.83,26408,23.63,74272.8,21.63,-15.43,-16.31,0,*45
1504253146.07,26409,23.63,74274.0,21.61,-15.95,-16.83,0,*44
1504253147.35,26410,23.63,74268.8,21.61,-15.39,-16.31,0,*43
1504253148.61,26411,23.63,74274.0,21.61,-15.29,-16.23,0,*40
1504253149.84,26412,23.63,74268.3,21.61,-15.29,-16.37,0,*46
1504253151.09,26413,23.63,74270.5,21.61,-15.53,-16.51,0,*4A
1504253152.33,26414,23.63,74268.3,21.59,-15.71,-16.69,0,*4D
1504253153.59,26415,23.63,74272.0,21.59,-16.09,-17.11,0,*4E
1504253154.88,26416,23.63,74272.3,21.57,-16.13,-17.11,0,*48
1504253156.14,26417,23.63,74272.3,21.57,-16.27,-17.31,0,*4C
1504253157.39,26418,23.63,74270.3,21.57,-15.71,-16.69,0,*4F
1504253158.63,26419,23.63,74270.5,21.53,-14.89,-15.85,0,*4D
1504253159.88,26420,23.63,74270.5,21.53,-15.57,-16.51,0,*4F
1504253161.13,26421,23.63,74272.8,21.53,-14.97,-15.85,0,*49
1504253162.33,26422,23.63,74270.3,21.53,-15.11,-16.03,0,*48
1504253163.56,26423,23.63,74270.8,21.53,-15.25,-16.27,0,*48
1504253164.8,26424,23.63,74268.3,21.53,-15.29,-16.31,0,*44
1504253166.01,26425,23.63,74272.0,21.53,-15.29,-16.41,0,*42
1504253167.23,26426,23.63,74270.5,21.53,-15.11,-16.13,0,*4D
1504253168.49,26427,23.63,74270.8,21.57,-15.25,-16.23,0,*4C
1504253169.75,26428,23.63,74270.8,21.51,-15.43,-16.37,0,*40
1504253170.96,26429,23.63,74268.5,21.53,-14.23,-15.11,0,*43
1504253172.23,26430,23.63,74270.3,21.53,-14.01,-14.97,0,*44
1504253173.47,26431,23.63,74268.3,21.53,-14.37,-15.39,0,*45
1504253174.71,26432,23.63,74270.0,21.53,-14.89,-15.85,0,*44
1504253175.94,26433,23.63,74272.0,21.57,-15.53,-16.55,0,*49
1504253177.19,26434,23.63,74270.8,21.53,-14.55,-15.49,0,*43
1504253178.41,26435,23.63,74268.8,21.53,-15.01,-16.03,0,*4F
1504253179.65,26436,23.63,74270.3,21.57,-15.95,-16.83,0,*4D
1504253180.88,26437,23.63,74268.8,21.53,-15.85,-16.89,0,*43
1504253182.14,26438,23.69,74274.5,21.51,-15.53,-16.65,0,*47
1504253183.39,26439,23.63,74268.5,21.53,-15.81,-16.51,0,*4C
1504253184.64,26440,23.63,74268.3,21.51,-14.75,-15.67,0,*4C
1504253185.87,26441,23.63,74270.3,21.51,-14.65,-15.63,0,*48
1504253187.15,26442,23.69,74274.8,21.51,-15.43,-16.31,0,*4A
1504253188.41,26443,23.63,74270.5,21.51,-14.65,-15.81,0,*46
1504253189.65,26444,23.63,74270.0,21.53,-14.55,-15.49,0,*44
1504253190.88,26445,23.63,74270.3,21.51,-14.65,-15.63,0,*4C
1504253192.14,26446,23.63,74268.5,21.51,-15.53,-16.51,0,*49
1504253193.4,26447,23.63,74270.0,21.53,-14.55,-15.57,0,*48
1504253194.69,26448,23.63,74270.5,21.51,-14.55,-15.43,0,*40
1504253195.92,26449,23.63,74268.5,21.53,-14.75,-15.75,0,*44
1504253197.13,26450,23.63,74270.5,21.53,-14.89,-15.75,0,*4F
1504253198.36,26451,23.63,74268.0,21.51,-15.49,-16.45,0,*41
1504253199.62,26452,23.69,74268.3,21.53,-15.89,-17.03,0,*4F
1504253200.91,26453,23.63,74268.3,21.51,-16.09,-17.11,0,*44
1504253202.17,26454,23.63,74268.8,21.51,-15.81,-16.79,0,*4F
1504253203.37,26455,23.69,74272.0,21.49,-15.53,-16.41,0,*43
1504253204.63,26456,23.69,74268.8,21.49,-15.57,-16.69,0,*4E
1504253205.84,26457,23.69,74270.3,21.49,-15.67,-16.59,0,*4F
1504253207.08,26458,23.63,74270.0,21.47,-15.49,-16.41,0,*4B
1504253208.31,26459,23.63,74268.3,21.49,-15.57,-16.59,0,*42
1504253209.58,26460,23.63,74270.5,21.47,-15.67,-16.69,0,*46
1504253210.8,26461,23.69,74270.8,21.49,-14.69,-15.57,0,*48
1504253212.03,26462,23.69,74268.5,21.49,-14.69,-15.57,0,*4B
1504253213.25,26463,23.69,74270.5,21.47,-14.69,-15.67,0,*47
1504253214.5,26464,23.63,74268.0,21.47,-14.61,-15.49,0,*44
1504253215.76,26465,23.63,74270.5,21.49,-14.79,-15.81,0,*46
1504253217.0,26466,23.69,74274.0,21.51,-14.19,-15.15,0,*47
1504253218.27,26467,23.69,74268.3,21.51,-14.55,-15.49,0,*47
1504253219.53,26468,23.63,74270.3,21.51,-15.43,-16.45,0,*41
1504253220.74,26469,23.69,74268.0,21.49,-15.67,-16.59,0,*42
1504253222.0,26470,23.69,74268.0,21.47,-16.83,-17.79,0,*4E
1504253223.29,26471,23.69,74272.0,21.47,-16.23,-17.25,0,*4C
1504253224.53,26472,23.63,74266.3,21.47,-15.67,-16.55,0,*4A
1504253225.76,26473,23.69,74268.0,21.45,-16.45,-17.63,0,*4E
1504253227.05,26474,23.63,74264.0,21.43,-15.81,-16.69,0,*4F
1504253228.33,26475,23.63,74268.8,21.43,-15.89,-16.69,0,*46
1504253229.61,26476,23.69,74268.0,21.43,-15.21,-16.09,0,*41
1504253230.87,26477,23.69,74270.3,21.43,-15.35,-16.37,0,*48
1504253232.13,26478,23.69,74270.8,21.43,-16.37,-17.41,0,*46
1504253233.38,26479,23.69,74272.3,21.41,-15.81,-16.65,0,*4C
1504253234.64,26480,23.69,74272.0,21.39,-14.93,-15.95,0,*4B
1504253235.87,26481,23.69,74268.8,21.41,-15.57,-16.45,0,*42
1504253237.13,26482,23.69,74270.0,21.43,-15.29,-16.31,0,*49
1504253238.34,26483,23.69,74268.0,21.41,-15.07,-16.03,0,*47
1504253239.57,26484,23.69,74270.5,21.41,-15.49,-16.51,0,*4D
1504253240.83,26485,23.69,74272.3,21.39,-15.85,-16.97,0,*49
1504253242.1,26486,23.69,74270.0,21.39,-16.41,-17.45,0,*4F
1504253243.36,26487,23.69,74270.5,21.37,-16.65,-17.59,0,*4B
1504253244.59,26488,23.69,74268.3,21.37,-15.85,-16.89,0,*45
1504253245.83,26489,23.69,74268.3,21.37,-15.75,-16.69,0,*45
1504253247.06,26490,23.69,74272.3,21.35,-15.99,-16.89,0,*43
1504253248.29,26491,23.69,74270.3,21.35,-15.67,-16.59,0,*4E
1504253249.55,26492,23.69,74270.0,21.37,-15.85,-16.69,0,*40
1504253250.8,26493,23.69,74270.5,21.35,-14.97,-15.99,0,*4D
1504253252.06,26494,23.69,74268.5,21.35,-15.53,-16.69,0,*4F
1504253253.35,26495,23.69,74270.5,21.35,-16.69,-17.63,0,*4F
1504253254.58,26496,23.69,74270.5,21.35,-15.71,-16.89,0,*43
1504253255.81,26497,23.69,74270.0,21.29,-15.53,-16.69,0,*41
1504253257.07,26498,23.69,74274.8,21.31,-15.81,-16.93,0,*4D
1504253258.3,26499,23.69,74270.0,21.31,-15.95,-16.93,0,*49
1504253259.56,26500,23.63,74266.5,21.31,-15.89,-16.97,0,*41
1504253260.82,26501,23.69,74272.5,21.29,-15.35,-16.23,0,*41
1504253262.05,26502,23.69,74270.3,21.29,-15.11,-16.09,0,*4C
1504253263.26,26503,23.69,74272.3,21.29,-14.65,-15.63,0,*40
1504253264.48,26504,23.69,74270.3,21.29,-14.75,-15.67,0,*42
1504253265.71,26505,23.69,74272.0,21.29,-14.43,-15.67,0,*46
1504253266.97,26506,23.69,74268.3,21.31,-15.01,-16.03,0,*4A
1504253268.26,26507,23.69,74270.8,21.31,-14.83,-15.81,0,*49
1504253269.53,26508,23.69,74268.0,21.31,-14.75,-15.75,0,*44
1504253270.76,26509,23.69,74270.0,21.35,-14.89,-16.03,0,*40
1504253272.01,26510,23.69,74270.8,21.35,-14.37,-15.29,0,*46
1504253273.27,26511,23.69,74272.3,21.35,-14.37,-15.39,0,*46
1504253274.54,26512,23.69,74272.0,21.37,-14.43,-15.43,0,*49
1504253275.78,26513,23.69,74268.8,21.35,-14.11,-15.15,0,*4E
1504253277.04,26514,23.69,74274.0,21.35,-13.69,-14.55,0,*44
1504253278.31,26515,23.69,74272.5,21.39,-14.11,-14.97,0,*4F
1504253279.56,26516,23.69,74268.0,21.39,-14.19,-15.25,0,*4C
1504253280.85,26517,23.69,74268.0,21.39,-15.85,-17.03,0,*4F
1504253282.1,26518,23.69,74268.0,21.39,-14.19,-15.11,0,*45
1504253283.34,26519,23.69,74268.8,21.41,-13.29,-14.15,0,*4A
1504253284.62,26520,23.69,74268.3,21.39,-13.87,-14.75,0,*4D
1504253285.88,26521,23.69,74270.5,21.41,-13.61,-14.43,0,*4E
1504253287.14,26522,23.69,74272.3,21.41,-14.93,-16.09,0,*4B
1504253288.37,26523,23.69,74268.0,21.41,-14.29,-15.21,0,*42
1504253289.64,26524,23.69,74270.5,21.41,-14.05,-15.01,0,*49
1504253290.87,26525,23.69,74274.0,21.43,-13.43,-14.29,0,*44
1504253292.08,26526,23.69,74270.0,21.45,-14.89,-16.03,0,*4A
1504253293.33,26527,23.69,74268.5,21.45,-14.97,-16.27,0,*42
1504253294.57,26528,23.69,74272.3,21.45,-15.25,-16.27,0,*45
1504253295.81,26529,23.69,74268.8,21.45,-14.83,-15.75,0,*4D
1504253297.07,26530,23.69,74272.0,21.43,-14.89,-15.89,0,*4A
1504253298.33,26531,23.69,74270.3,21.43,-15.29,-16.23,0,*43
1504253299.59,26532,23.69,74274.0,21.43,-14.79,-15.63,0,*43